Regional Weather Roundup
Issued by NWS

Home | Current Version | Previous Version | Graphics & Text | Print | Product List | Glossary On
Versions: 1 2 3 4 5 6 7 8 9 10 11 12 13 14 15 16 17 18 19 20 21 22 23 24 25 26 27
000
ASUS45 KBOU 100010
RWRCO

WEATHER ROUNDUP FOR COLORADO
NATIONAL WEATHER SERVICE DENVER/BOULDER CO
500 PM MST SAT DEC 09 2017

NOTE: "FAIR" INDICATES FEW OR NO CLOUDS BELOW 12000 FEET WITH NO
SIGNIFICANT WEATHER AND/OR OBSTRUCTIONS TO VISIBILITY.

COZ001>005-013-030-031-100100-
...NORTHWEST COLORADO...

CITY           SKY/WX    TMP DP  RH WIND       PRES   REMARKS
CRAIG          FAIR      21  14  74 CALM      30.51R
HAYDEN         FAIR      32  17  54 E6        30.52S WCI  26
MEEKER         FAIR      33   3  28 NE3       30.48R
RABBIT EARS PA FAIR      19  10  68 W9        30.51F WCI   9
STEAMBOAT SPGS FAIR      28  15  59 CALM      30.51S
WALDEN         FAIR      25  10  54 SE3       30.50S
$$

COZ006>008-011-100100-
...WEST CENTRAL VALLEYS...

CITY           SKY/WX    TMP DP  RH WIND       PRES   REMARKS
GRAND JUNCTION FAIR      41  10  28 W5        30.48R
MONTROSE       FAIR      40   8  26 CALM      30.50R
EAGLE          FAIR      27  16  63 CALM      30.55R
RIFLE          FAIR      35   9  33 S9        30.48S WCI  28
DELTA          FAIR      44   7  21 CALM      30.49R
NUCLA          FAIR      50   3  14 CALM      30.49F
$$

COZ017>023-064>068-100100-
...SOUTHWEST COLORADO...

CITY           SKY/WX    TMP DP  RH WIND       PRES   REMARKS
DURANGO        FAIR      43   6  21 SW3       30.43S
CORTEZ         FAIR      41   6  23 SW3       30.45S
PAGOSA SPRINGS FAIR      40   0  18 SW3       30.46S
TELLURIDE      FAIR      41 -17   8 W9        30.52S
WOLF CREEK PAS FAIR      27   0  31 SW8       30.60S WCI  18
$$

COZ009-010-012-014-032>034-037-058>063-100100-
...CENTRAL COLORADO...

CITY           SKY/WX    TMP DP  RH WIND       PRES   REMARKS
ASPEN          FAIR      32   5  32 S8        30.49R WCI  25
BUENA VISTA    FAIR      38 -10  12 W6        30.44R
COPPER MTN     NOT AVBL
BERTHOUD PASS  FAIR      12   1  62 NW13G23   30.51S WCI  -3
COTTONWOOD PAS FAIR      39 -24   6 W8        30.49R
GUNNISON       FAIR      33   2  26 N8        30.48S WCI  26
KREMMLING      FAIR      19  14  79 CALM      30.57S
LEADVILLE      FAIR      27  -4  26 N9        30.49R WCI  18
MONARCH PASS   FAIR      23  -4  30 SW17      30.64S WCI   9
SALIDA         FAIR      43  -5  13 W13       30.49R
SUNLIGHT       FAIR      27  -6  24 W6        30.59S WCI  20
WILKERSON PASS FAIR      28 -15  14 N6        30.52S WCI  22
$$

COZ069>075-100100-
...SAN LUIS VALLEY/SANGRE DE CRISTO MOUNTAINS...

CITY           SKY/WX    TMP DP  RH WIND       PRES   REMARKS
ALAMOSA        FAIR      38  -4  16 S5        30.43S
DEL NORTE      FAIR      36  -2  19 NE3       30.45S
LA VETA PASS   FAIR      30  -4  22 SW22G31     N/A  WCI  17
SAGUACHE       FAIR      39  -6  14 N15       30.45R
$$

COZ035-036-038>040-100100-
...NORTHERN COLORADO FRONT RANGE...

CITY           SKY/WX    TMP DP  RH WIND       PRES   REMARKS
DENVER INTL AP FAIR      47  -1  13 NE6       30.33R
DMNS CITY PARK NOT AVBL
AURORA         PTCLDY    40   2  20 SE6       30.34R
FRONT RANGE AP PTCLDY    46   0  14 NE7       30.33S
ERIE MUNI ARPT FAIR      45   0  15 S3        30.39R
BOULDER MUN AP FAIR      52   3  14 SW6       30.33R
CENTENNIAL     FAIR      49   3  15 E5        30.35R
BROOMFIELD     PTCLDY    50   0  12 W18       30.34R
FORT COLLINS   FAIR      51   4  14 W3        30.33R
LONGMONT       FAIR      47   5  18 SW3       30.35R
$$

COZ041-046-047-076>085-087-088-100100-
...PIKES PEAK/PALMER DIVIDE AND SOUTHERN FOOTHILLS...

CITY           SKY/WX    TMP DP  RH WIND       PRES   REMARKS
COLO. SPRINGS  FAIR      46  -4  12 SE8       30.36R
A. F. ACADEMY  FAIR      43  -5  13 W6        30.36R
SCHRIEVER AFB  FAIR      44  -5  12 S3        30.36R
CHEYENNE MTN   FAIR      46  -6  11 S8        30.33R
ELLICOTT         N/A    N/A N/A N/A S5        30.34R
FALCON         FAIR      42  -8  12 CALM      30.38R
FORT CARSON    FAIR      46  -6  11 SE7       30.34R
LIMON          FAIR      30  -2  25 N12       30.32R WCI  20
MONUMENT HILL  FAIR      34   0  23 E6        30.39R WCI  29
CANON CITY     FAIR      46   3  17 NE9       30.31R
WALSENBURG     FAIR      45   0  15 SW10      30.33R
TRINIDAD       FAIR      48  -3  12 SE9       30.33S
$$

COZ042>045-048>051-090-091-100100-
...NORTHEAST COLORADO...

CITY           SKY/WX    TMP DP  RH WIND       PRES   REMARKS
GREELEY ARPT   FAIR      44   4  19 N10       30.32R
AKRON          FAIR      42   3  19 NW12      30.30R
BURLINGTON     FAIR      49   5  16 N14       30.28S
WRAY           FAIR      43   3  19 W5        30.26R
YUMA           FAIR      46   5  18 NW10      30.28R
STERLING       FAIR      45   9  23 NW10      30.29R
HOLYOKE        FAIR      54   7  15 NW8       30.25R
FORT MORGAN    FAIR      40  -2  17 N9        30.32R
$$

COZ086-089-092>099-100100-
...SOUTHEAST COLORADO...

CITY           SKY/WX    TMP DP  RH WIND       PRES   REMARKS
PUEBLO         FAIR      45  -1  14 E9        30.30R
LA JUNTA       FAIR      56   0  10 CALM      30.29R
LAMAR          FAIR      50   5  16 E3        30.28R
SPRINGFIELD      N/A     45   5  19 NW5       30.31S
$$




USA.gov is the U.S. government's official web portal to all federal, state and local government web resources and services.